BUS_NAME,NETWORK_OPERATOR_ID,CONNECTION_TYPE,PARTY,UNIT_OF_MEASURE,FLOW,STATUS,MD_DATE,TP1,TP2,TP3,TP4,TP5,TP6,TP7,TP8,TP9,TP10,TP11,TP12,TP13,TP14,TP15,TP16,TP17,TP18,TP19,TP20,TP21,TP22,TP23,TP24,TP25,TP26,TP27,TP28,TP29,TP30,TP31,TP32,TP33,TP34,TP35,TP36,TP37,TP38,TP39,TP40,TP41,TP42,TP43,TP44,TP45,TP46,TP47,TP48,TP49,TP50,CHECKSUM
OKI2201,CTCT,GG,CTCT,kWh,I,F,01/04/1999,22880,22730,22610,23350,23790,24190,23240,23010,23230,23300,23650,23540,23510,23460,23370,23150,23340,23840,23580,23390,22940,22920,22950,23320,23230,23090,22920,22880,22900,22970,23070,22980,22980,22930,22810,22810,23330,23340,23130,22870,23050,23330,24020,23470,23280,23040,23050,23280,1114050
OKI2201,CTCT,GG,CTCT,kWh,I,F,02/04/1999,23620,23560,23510,23480,23330,23290,23230,23450,23640,23430,23420,23120,23080,23630,23720,23570,23300,23240,23370,23520,23730,23670,23510,23450,23510,23530,24120,23620,23590,23380,23110,23030,23050,23300,23450,23320,23240,23080,23110,23270,23710,23620,23440,23280,23470,23490,23730,23810,1125130
OKI2201,CTCT,GG,CTCT,kWh,I,F,03/04/1999,23690,23530,23450,23560,23630,23900,23790,23660,23640,23480,23890,23460,23910,24050,23860,23760,23430,23370,23510,23670,23620,23540,23320,23250,23060,23130,23380,23530,23160,23040,22970,23130,23350,24070,23570,22870,22860,23110,23190,23500,23420,23380,23210,23300,23090,23320,23600,23670,1125880
OKI2201,CTCT,GG,CTCT,kWh,I,F,04/04/1999,23540,23380,23150,23190,23680,23790,23560,23440,23450,23460,23530,23840,23750,23690,23600,23560,23410,23470,24400,23780,23650,23110,23000,23220,23410,23380,23140,23090,22960,22960,22930,23290,23230,23140,22990,22840,22820,23220,23610,24070,23600,22880,22980,23270,23460,23450,23220,23160,1121750
OKI2201,CTCT,GG,CTCT,kWh,I,F,05/04/1999,23160,23070,23300,23440,23510,23370,23300,23120,23220,23700,23740,23660,23360,23320,23450,23720,23790,23560,23330,23310,23110,23080,23180,23250,23130,23000,23030,23120,22730,23410,23300,23120,22890,22850,23060,23140,23270,23230,23100,23100,23200,23230,23410,23580,23390,23400,23300,23140,1117180
OKI2201,CTCT,GG,CTCT,kWh,I,F,06/04/1999,23320,24320,24130,23300,23170,23160,23350,23620,23580,23510,23190,23320,23270,23280,23450,23590,23450,23180,22840,22810,22030,22390,22840,22750,22550,22690,22790,22930,22950,22900,22860,22800,22710,22520,23040,23420,22770,22870,22840,22680,22720,23180,23290,23080,22880,22790,22730,22750,1106590
OKI2201,CTCT,GG,CTCT,kWh,I,F,07/04/1999,23240,23170,23040,22660,22680,22850,23190,22970,22870,22920,23380,22800,22720,22960,22880,22810,22530,22480,22590,22780,22840,22690,22180,22060,22140,22130,22430,22320,22140,21940,21780,21730,22460,22700,22210,22040,22120,21890,22160,22500,22460,22310,22340,22250,22410,23310,22840,22410,1082310
OKI2201,CTCT,GG,CTCT,kWh,I,F,08/04/1999,22290,22430,22550,22840,22730,22620,22560,22480,22440,22610,22690,22670,22670,22510,22390,22230,22450,22610,22400,22080,21700,21340,21500,21590,21550,21400,21010,21280,21550,21810,22130,22160,21930,21930,22200,22290,22500,22500,22400,22440,22490,22460,22760,22990,23100,23060,22850,22730,1069900
OKI2201,CTCT,GG,CTCT,kWh,I,F,09/04/1999,22950,23400,24040,23230,22640,22820,22940,23110,23190,23170,23100,23010,22980,22890,23060,23350,23240,23180,22940,22540,22690,22900,22680,22500,22230,22290,22230,22500,22590,22800,22700,22640,22460,22910,23030,22950,22780,22570,22740,23640,23280,22830,22630,22650,23170,23300,23100,22890,1099460
OKI2201,CTCT,GG,CTCT,kWh,I,F,10/04/1999,22720,23010,23460,23370,22930,22530,22050,21670,21190,19200,18350,18700,18660,19030,19120,18950,18730,18610,18540,18770,18870,19570,19610,20090,20180,20020,19970,19760,19530,19560,19800,20150,19790,19660,19760,19880,20050,20340,20060,19890,19960,19910,20020,20330,20090,20350,20080,20310,967180
OKI2201,CTCT,GG,CTCT,kWh,I,F,11/04/1999,20850,20830,20310,20160,19910,19940,20460,20530,20300,20020,19910,20020,20400,20450,20260,20190,20040,20110,20190,20370,20100,20030,19840,19620,20100,20110,20160,19880,19890,19660,19970,20150,20200,19970,19950,19800,20120,20470,20310,19900,20370,20000,20300,20580,20390,20100,19950,20190,967360
OKI2201,CTCT,GG,CTCT,kWh,I,F,12/04/1999,20430,20610,20340,20040,20020,20260,20380,20520,20450,20460,20190,20490,20570,21260,20530,20430,20190,20210,20650,20590,20400,19920,19780,19690,19840,20290,19970,19780,19750,19820,19770,20140,19970,19840,19740,19700,19680,20040,20250,20190,20070,19940,19770,20130,20780,20150,20040,20210,968270
OKI2201,CTCT,GG,CTCT,kWh,I,F,13/04/1999,20130,20590,20860,20630,20480,20550,20620,20750,20910,20760,20760,20590,20630,20400,20960,21640,21490,20550,20450,20380,20680,20900,20320,20010,20110,20140,20240,19930,21530,21500,20730,20200,22270,22960,23140,23130,23000,23010,22900,23160,23480,23370,23160,22950,23020,23240,23550,23440,1030200
OKI2201,CTCT,GG,CTCT,kWh,I,F,14/04/1999,23040,23040,23130,23250,23400,23580,23210,23460,23720,23790,23270,23540,23580,23480,23310,23190,23180,23550,23600,23470,22950,22780,22780,23060,23060,22840,22850,22650,22620,22890,23080,23120,22910,22610,22580,22850,23160,23070,22940,22830,22910,22860,22880,23230,23690,23150,22720,22780,1109640
OKI2201,CTCT,GG,CTCT,kWh,I,F,15/04/1999,22840,23270,23370,23110,22920,22880,23100,23270,23200,23140,23030,23020,23020,22860,23170,23370,23280,22930,22750,22690,23150,23240,23100,22930,22720,22920,22950,23190,23150,22710,22600,22620,22750,22930,23590,22990,22760,22450,22470,22740,23040,23130,23040,22780,22610,22770,22860,23170,1102580
OKI2201,CTCT,GG,CTCT,kWh,I,F,16/04/1999,22910,22690,22820,22730,22740,22980,23090,22890,22940,22740,22680,22850,23120,23050,22850,22730,22550,22330,22560,23030,23150,22370,22270,21950,22020,22610,22760,22620,22330,22410,22380,22770,23080,22900,22540,22460,22630,22760,22980,23030,22790,22760,22810,23080,23040,23290,23190,23220,1092480
OKI2201,CTCT,GG,CTCT,kWh,I,F,17/04/1999,23070,23040,22860,23470,23490,23160,23070,23160,23010,23080,23360,23290,23130,22950,23090,22940,23280,23570,23440,23150,23160,23270,23540,23840,23490,23200,23320,23380,24110,23650,23310,23370,23400,23230,23030,23130,23310,23520,23310,23130,22980,22930,23260,23730,23710,23300,23250,23450,1117920
OKI2201,CTCT,GG,CTCT,kWh,I,F,18/04/1999,23470,23720,23700,23810,23530,23480,23440,23440,23660,23550,23660,23410,23390,23220,23650,23820,23610,23410,23370,23650,23350,23690,23460,23360,23250,23150,23020,23250,23190,23190,22810,22710,22710,22940,23150,23050,22790,22680,22790,22820,23110,23240,23740,22940,22740,22660,22850,23360,1116990
OKI2201,CTCT,GG,CTCT,kWh,I,F,19/04/1999,23160,22940,22810,22830,22970,23330,23260,23050,23030,22980,23140,22990,23300,23310,23290,23110,22930,22780,23030,23110,22930,22580,22460,22360,22450,22670,22780,22360,22110,22460,22430,22790,22390,22370,22440,22410,22510,22420,22590,22820,22930,22860,22660,22610,22550,22960,23210,23030,1094490
OKI2201,CTCT,GG,CTCT,kWh,I,F,20/04/1999,22780,22870,22950,22970,23390,23200,23100,22970,22980,22880,23060,23450,23390,23220,22990,22900,23040,23910,23310,22900,21670,21300,21420,21540,21630,21590,21540,21320,21220,21450,21370,21440,21300,21240,21310,20960,20890,21300,21490,21630,21200,21050,21170,21110,21320,21520,21710,21460,1060410
OKI2201,CTCT,GG,CTCT,kWh,I,F,21/04/1999,21420,21230,21350,21580,21650,21580,21560,21500,21290,21470,21720,21710,21610,21290,21540,21640,22030,22140,21850,21540,21400,21350,21280,21580,20960,20910,20770,20820,21400,20990,20970,21110,21320,21300,21190,21230,21620,21860,21770,21820,21450,21470,21470,21720,21870,21920,21780,21560,1030590
OKI2201,CTCT,GG,CTCT,kWh,I,F,22/04/1999,21470,21750,21880,22070,22040,21920,21960,21890,21950,22020,22130,22100,21830,21630,21790,22120,22070,21930,21870,21710,21740,22350,22440,22590,22360,21750,21550,22030,22430,22540,22420,22280,22220,22670,22610,22370,22180,22340,22300,22590,22800,22790,22460,22340,22410,23070,22930,22770,1065460
OKI2201,CTCT,GG,CTCT,kWh,I,F,23/04/1999,22520,22570,23370,23410,22970,22780,22710,22890,23400,23480,23010,22860,22970,22920,23340,23320,23090,22780,22850,22790,22990,23080,22880,22570,22330,22200,22610,22680,22540,22010,22290,22080,22930,23200,22530,22180,22220,22550,22940,22830,22560,22360,22400,22540,22900,22730,22770,22570,1092500
OKI2201,CTCT,GG,CTCT,kWh,I,F,24/04/1999,22610,22640,22890,22940,22910,22740,22520,22720,23290,23040,22840,22530,22640,22840,23130,22970,22790,22650,22620,22780,22750,22580,22490,22330,22340,22120,22920,22560,22400,22160,22110,22360,22780,22720,22380,22330,22320,22910,22970,22730,22540,22400,22770,23030,22870,22600,22380,22680,1087620
OKI2201,CTCT,GG,CTCT,kWh,I,F,25/04/1999,23250,23290,22610,22520,22600,22590,23060,22920,22860,22700,22510,22690,23020,23050,22820,22710,22560,22800,22790,22640,22290,22350,22270,22630,22410,22290,22180,22100,22380,22510,22440,22350,22250,21960,22760,22970,22870,22260,22270,22870,22770,22640,22570,22600,22670,22900,22810,22790,1086150
OKI2201,CTCT,GG,CTCT,kWh,I,F,26/04/1999,22620,22370,22720,22980,22850,22650,22570,22570,22940,23060,22910,22820,22770,23260,23520,23220,22960,22500,22610,22960,22790,22500,22120,22160,22540,23280,22630,22140,22010,22210,22730,22610,22300,22110,22220,22430,22710,22570,22320,22450,22320,22550,22680,22680,22590,22490,22420,22790,1086210
OKI2201,CTCT,GG,CTCT,kWh,I,F,27/04/1999,23030,22770,22550,22380,22280,22890,22890,22590,22380,22400,22790,23430,22870,22370,22450,22420,22790,22880,22570,22290,22270,22450,22640,22410,21790,21630,21660,21560,21310,19230,17220,17380,18200,21210,22040,21980,21730,21860,21630,22330,22730,22790,21920,21810,22090,22540,22400,22300,1054130
OKI2201,CTCT,GG,CTCT,kWh,I,F,28/04/1999,22300,22210,22220,22560,22560,22400,22330,22260,22360,22510,22650,22570,22280,22170,22280,22640,22700,22260,22000,22190,22100,22110,22240,22220,22110,21930,21880,21940,22180,22660,22180,21650,21850,22000,22390,21980,21910,22020,21910,22050,22420,22560,22310,22260,22120,22230,22500,22590,1067750
OKI2201,CTCT,GG,CTCT,kWh,I,F,29/04/1999,22470,22300,22250,22100,22590,22470,22430,22360,22250,22270,22590,22720,22490,22160,22170,22440,23480,22890,22460,22230,22100,22130,22380,22240,21940,21870,21820,21890,22080,22060,22060,21930,21890,21810,22140,22320,22180,22040,21850,21800,22200,22400,22370,20260,14870,13670,13130,13260,1031810
OKI2201,CTCT,GG,CTCT,kWh,I,F,30/04/1999,13250,13930,16800,22450,22180,22690,23150,22860,22190,22190,22320,22630,22690,22630,22230,22240,22280,22710,22670,22520,22130,21960,21770,22090,22270,22040,21750,21600,21780,21990,22190,22110,21820,21750,21680,21990,22360,22080,21870,21750,21890,21930,22740,22190,21980,21840,21810,21750,1041720
OKI2201,CTCT,GG,CTCT,kWh,I,F,01/05/1999,22090,22230,22060,21760,21890,21880,21940,22100,22080,22130,21920,22020,21930,22540,22350,22220,21970,21950,21970,22330,22490,22230,22020,21990,22050,22210,22430,22410,21560,21800,22110,22520,21660,21850,22000,21990,21680,21560,21770,21930,22110,22230,22100,21990,21800,21840,22320,22290,1058300
OKI2201,CTCT,GG,CTCT,kWh,I,F,02/05/1999,22220,22100,21980,21910,22240,22390,22290,22050,21850,21830,22340,22320,22130,21770,13340,16540,22020,22290,22100,21880,21760,22130,22280,22080,21990,21790,21470,21360,21500,21680,21820,21680,21650,21570,21710,21600,21820,22060,22040,21950,21930,21790,21880,22220,22070,22000,21980,4150,1021550
OKI2201,CTCT,GG,CTCT,kWh,I,F,03/05/1999,1570,1640,4510,21260,22400,22440,22330,22390,22660,22650,22600,22410,22700,22970,22490,22750,22840,22840,22670,22500,22420,22610,22910,22710,22710,22500,22540,22500,22890,22650,22500,22470,22480,22500,22700,22760,22730,22480,22670,22620,22640,22770,22890,22670,22610,22670,22610,22670,1024500
OKI2201,CTCT,GG,CTCT,kWh,I,F,04/05/1999,22900,23250,23150,22350,22520,22580,22870,23030,22860,22670,22590,22610,22720,23150,23010,22910,22690,22620,22590,22860,23090,22900,22620,22540,22400,22730,21980,22550,22590,22480,22530,22640,22930,22920,22670,22480,22450,22500,23180,23160,22670,22240,21930,22070,22200,22420,22410,22030,1087240
OKI2201,CTCT,GG,CTCT,kWh,I,F,05/05/1999,21850,21950,21850,21860,22240,22080,21920,22040,21960,22050,22210,22220,21950,21990,21870,21860,21940,22120,22140,22020,21810,21740,21460,21770,22260,22540,21840,21460,21600,21620,21770,21740,21920,21710,21650,21780,22130,22400,22300,22200,22000,21990,22150,22640,22460,22220,22000,22050,1055330
OKI2201,CTCT,GG,CTCT,kWh,I,F,06/05/1999,22100,22330,22470,22210,22040,21970,21970,22110,22260,22230,22020,22020,22280,22470,22030,22320,22130,22110,22110,22000,21960,22020,22300,22220,22150,21950,21990,21910,22250,22300,22280,22110,22060,22020,22180,22340,22300,22150,22050,21860,22010,22360,22330,22000,21880,21970,21860,22170,1062160
OKI2201,CTCT,GG,CTCT,kWh,I,F,07/05/1999,22160,22060,21760,21960,22450,21960,21930,22000,21790,21740,21760,21690,21740,21940,21980,21810,21670,21570,21450,21690,21860,21800,21540,21450,21260,21470,21670,21600,21610,21330,21290,21280,21610,21720,21860,21680,21680,21520,21750,21980,22050,21800,21750,21870,22200,21880,22140,22070,1044830
OKI2201,CTCT,GG,CTCT,kWh,I,F,08/05/1999,21960,21670,21720,21870,22120,22240,22000,21820,21760,21700,22030,22300,22200,21870,21780,21800,21970,22250,22250,21980,21740,21650,21730,21770,21960,21870,21690,21440,21610,21650,21720,21900,21820,21720,21800,22250,21900,21750,21990,21940,22060,21890,21770,21710,21980,22160,22240,22050,1051050
OKI2201,CTCT,GG,CTCT,kWh,I,F,09/05/1999,22050,21940,22140,22370,22440,22310,22110,22110,21970,22280,22350,22400,22190,22010,21930,22060,22480,22250,22090,22190,22140,22130,22310,22360,22230,22020,21880,22420,21820,22050,22010,21870,21590,21560,21560,21870,22100,22000,21720,21610,21620,21760,22080,22070,21910,21610,21590,21590,1057150
OKI2201,CTCT,GG,CTCT,kWh,I,F,10/05/1999,22040,22140,22040,21650,21640,21660,21890,22120,21960,21760,21540,21720,21660,21880,21960,21740,21740,21460,21620,21940,21790,21570,21480,21230,21210,21290,21440,21720,21470,21310,21220,21310,21370,21430,21710,21640,21690,21490,21520,21460,21760,21980,21830,21830,21540,21490,21780,22050,1039770
OKI2201,CTCT,GG,CTCT,kWh,I,F,11/05/1999,22100,21870,21680,21670,21750,22020,22120,22030,21770,21880,22320,22220,22000,22240,22260,22060,21930,21710,21730,21890,22120,21890,21600,21460,21360,21840,21890,21770,21110,19960,21450,21470,21680,21610,21420,21230,21240,21490,21820,21890,21700,21560,21520,21650,21990,22120,21960,21710,1043760
OKI2201,CTCT,GG,CTCT,kWh,I,F,12/05/1999,21900,22310,22130,21860,22170,21950,21930,21860,21860,21770,22120,22080,22040,21750,21760,21670,22060,22050,21910,21820,21280,20380,21910,22010,21380,21270,21680,21500,21510,21860,21870,21730,21600,21560,21560,21830,21820,21900,21780,21560,21620,22220,22350,21780,21680,21600,21560,21770,1045570
OKI2201,CTCT,GG,CTCT,kWh,I,F,13/05/1999,22230,22180,21970,21660,21620,21620,21750,22110,22030,21890,21620,21660,21930,22150,22090,21760,21690,21590,21840,22070,21940,21670,21370,21400,21490,21820,21910,21630,21390,21240,21280,21720,22340,21560,21200,21350,21250,21470,21570,21490,21330,21310,21320,21310,21500,21610,21510,21380,1039820
OKI2201,CTCT,GG,CTCT,kWh,I,F,14/05/1999,21280,21240,21280,21420,21460,21420,21300,21240,21230,21170,21570,21520,21390,21190,21210,20950,21270,21400,21400,21190,20790,20900,21400,21610,21130,21040,20840,20760,20810,21290,21350,21160,20920,20760,20650,20900,21250,21250,20930,20800,20810,20880,21240,21150,21010,20760,20800,20760,1014080
OKI2201,CTCT,GG,CTCT,kWh,I,F,15/05/1999,21030,21110,21030,20900,20870,20890,20880,21150,21100,20850,20780,20900,21200,21280,20930,20930,20800,20720,20670,20830,21010,20970,20810,20800,20670,20550,20780,20960,20800,20750,20750,20730,20720,21040,21000,20890,20760,20760,20700,20860,21030,20940,20860,20700,20800,20690,20980,21000,1002160
OKI2201,CTCT,GG,CTCT,kWh,I,F,16/05/1999,20880,20700,20810,21220,21100,20840,20860,20830,20780,20680,20890,21090,20980,20960,20830,20810,20580,20880,20980,21020,20800,20690,20570,20630,21380,21390,21580,21330,21250,21120,21380,21530,21470,21470,21340,21300,21240,21640,21610,21600,21340,21260,21380,22060,21700,21620,21480,21380,1015260
OKI2201,CTCT,GG,CTCT,kWh,I,F,17/05/1999,21310,21660,21770,21690,21420,21490,21390,21460,21780,21800,21690,21470,21760,21760,22090,22160,22080,21900,21900,21930,22180,22310,22030,21900,21850,21920,22100,22410,22250,22030,21800,21960,22490,22790,22090,22020,21770,21810,22300,22490,22310,22020,21960,21890,22350,22530,22450,22230,1054750
OKI2201,CTCT,GG,CTCT,kWh,I,F,18/05/1999,21600,21370,21820,22030,21830,21610,21510,21400,21700,22060,22000,21780,21570,21460,21720,21920,21980,21820,21610,21570,21760,22670,21900,21600,21310,21200,21270,20460,21310,21400,21150,21060,21020,21420,21640,21570,21360,21170,21210,21490,21770,21620,21520,21300,21320,21570,21820,21960,1035210
OKI2201,CTCT,GG,CTCT,kWh,I,F,19/05/1999,21750,21540,21490,21680,21930,21970,21790,21610,21720,21890,22760,22050,21770,21630,21500,21760,22100,22150,21800,21620,21540,21510,21890,21970,21740,21460,21230,21000,21330,21450,21180,20970,20860,20860,21180,21560,21530,21300,21130,21110,21190,21490,21540,21530,21260,21150,21270,22220,1034960
OKI2201,CTCT,GG,CTCT,kWh,I,F,20/05/1999,21630,21540,21210,21210,21370,21700,21920,21740,21550,21410,21480,21810,21970,21850,21660,21690,21610,21780,21880,21700,21730,21770,21520,21600,21790,21680,21460,21020,20720,21200,21620,21780,20900,20810,20770,21110,21320,21440,21230,21180,21190,21540,21610,21770,21540,21490,21410,21790,1031700
OKI2201,CTCT,GG,CTCT,kWh,I,F,21/05/1999,21720,21770,21750,21620,21640,22020,22070,21850,21790,21650,21680,22160,22040,21890,21910,21850,21850,21910,21880,21600,21530,21640,22210,22490,21920,21710,21560,21490,21710,22030,21810,21490,21300,21360,21450,21700,21680,21490,21470,21560,21670,22040,21840,21770,21620,21810,21740,22170,1044910
OKI2201,CTCT,GG,CTCT,kWh,I,F,22/05/1999,22080,22000,21770,21720,21970,22120,22000,21810,21800,21610,21710,22340,22250,21760,21670,21430,20500,19620,17830,10380,10580,21340,21190,21380,21790,21750,21590,21450,21340,21480,21750,21860,21710,21560,21500,21470,21800,21960,21840,21700,21550,21420,21580,22110,21880,21730,21560,21530,1012770
OKI2201,CTCT,GG,CTCT,kWh,I,F,23/05/1999,21510,22140,22530,22210,21600,21570,21530,21960,21970,21830,21610,21430,21430,21960,13810,12420,12480,14040,14050,14010,14050,14110,13980,13910,13440,13290,13240,15720,18170,20080,19600,19430,20260,19920,21830,21560,21420,21430,21850,22090,21970,22010,21900,21770,22270,22220,22210,22150,921970
OKI2201,CTCT,GG,CTCT,kWh,I,F,24/05/1999,21990,21980,21820,22140,22270,22220,21950,21900,21740,22100,22340,22200,22020,21880,21800,22020,22860,22150,21900,21750,21690,21750,21800,21800,21770,21550,21590,21700,21670,21650,21510,21080,21050,21190,21620,21760,21520,21360,21530,21580,21740,21950,21910,21630,21710,21690,21730,21940,1046500
OKI2201,CTCT,GG,CTCT,kWh,I,F,25/05/1999,22000,21930,21850,21730,21730,22400,22500,22120,21870,21650,21510,21630,21950,21880,21690,21460,21410,21320,21770,21970,21860,21520,21340,21330,21630,21700,21680,20150,20440,21260,21270,21630,21530,21390,21150,21390,21310,21440,21670,21610,21550,21280,21450,21870,21680,21580,21700,21730,1036510
OKI2201,CTCT,GG,CTCT,kWh,I,F,26/05/1999,21520,21490,21790,22120,22120,21940,21850,21650,21620,21880,22090,21930,21670,21610,21460,21850,21890,21660,21550,21430,21360,21310,21490,21570,21590,21270,21110,20970,20960,21180,21130,20930,21030,21220,21460,20940,21300,21120,21210,21000,20940,20730,20870,21290,21230,21040,20760,20770,1026900
OKI2201,CTCT,GG,CTCT,kWh,I,F,27/05/1999,20870,21430,21410,21380,21020,20700,20920,20960,21530,21430,21290,20970,21040,20960,21370,21460,21180,20960,20750,20760,20860,21290,21420,21760,21440,20200,19260,19170,19540,20310,19950,20010,21800,21700,21670,22100,22030,21930,21620,21580,21640,21900,22140,21940,22030,21800,21810,21800,1017090
OKI2201,CTCT,GG,CTCT,kWh,I,F,28/05/1999,22050,21990,21990,21820,21650,21880,21940,22300,22060,21850,21650,21830,21770,21970,22370,22600,21860,21650,21630,21780,21870,21970,21720,21730,21670,21630,21860,22130,21990,21720,21590,21640,21490,21960,22000,21730,21380,21550,21580,21780,21900,21930,21400,21450,21530,21530,21490,21780,1046640
OKI2201,CTCT,GG,CTCT,kWh,I,F,29/05/1999,21790,21790,21610,21400,21610,21860,22160,21840,21780,21520,21440,21510,21850,22030,21850,21660,21410,21470,21560,21920,21890,21610,21470,21460,21250,21270,21560,21490,21490,21290,21290,21250,21210,21620,21710,21500,21300,21170,21280,21720,21750,21590,21350,21090,21420,22270,21830,21500,1035690
OKI2201,CTCT,GG,CTCT,kWh,I,F,30/05/1999,21280,21400,21250,21500,21710,21630,21390,21360,21390,21300,21440,21680,21870,21590,21450,21370,21310,21760,21890,21690,21450,21210,21420,21600,21800,21630,21360,21180,21310,21270,21510,21660,21420,21430,21260,21590,21770,21380,21610,21590,21440,21160,21240,21270,21700,21690,21620,21320,1031150
OKI2201,CTCT,GG,CTCT,kWh,I,F,31/05/1999,21180,21510,21540,21860,21610,21560,21510,21450,21510,21580,21730,21730,21650,21450,21340,21350,21620,21990,21670,21440,21460,21340,21520,21840,21960,21590,21410,21650,22200,21440,21710,21710,21500,21550,21390,21460,21270,21550,21970,21760,21600,21420,21440,21350,21920,21870,21800,21580,1036540
OKI2201,CTCT,GG,CTCT,kWh,I,F,01/06/1999,21430,21790,21820,22130,21990,21900,21650,21760,21720,21940,22080,21960,21960,21760,21750,21790,22420,22550,21790,21750,21480,20550,20830,21250,21120,20850,20480,20760,21340,21260,21730,21550,21360,21160,21140,21370,21670,21910,21820,21670,21430,21300,20990,21210,21140,21160,21510,21370,1033350
OKI2201,CTCT,GG,CTCT,kWh,I,F,02/06/1999,21210,21530,22050,21420,21390,21250,21130,21370,21780,21690,21500,21400,21280,21280,21580,21810,21720,21630,21340,20950,21290,21640,21680,21540,21350,21120,21220,21240,21740,21570,21560,21150,21290,21100,21410,21770,21640,21420,21260,21550,21750,21280,21800,21730,21590,21340,21220,21210,1029770
OKI2201,CTCT,GG,CTCT,kWh,I,F,03/06/1999,21590,21730,21570,21570,21270,21520,21580,21840,21800,21590,21480,21550,21580,21720,21870,21720,21850,21660,21610,21540,21790,21970,21840,21560,21490,21630,21680,22520,22010,21580,21520,21530,21660,21960,21870,21760,21660,21590,21520,21950,21890,21920,21730,21520,20890,21310,21610,21410,1040010
OKI2201,CTCT,GG,CTCT,kWh,I,F,04/06/1999,21170,18350,16770,17580,20120,20780,16690,16350,6010,1590,1690,1680,1640,1550,1530,4950,13160,14360,12370,9230,18550,20350,21610,22110,22040,21750,21410,21480,21830,21950,21490,20880,20600,20550,21020,21280,21110,20880,20660,20860,20800,21120,20890,20580,20380,20680,20630,20770,805830
OKI2201,CTCT,GG,CTCT,kWh,I,F,05/06/1999,21290,21480,20880,20530,20650,20720,21030,20900,20660,20750,20690,20740,21000,21040,20870,20870,11900,9020,10600,11100,11090,10710,10630,10560,10520,10650,10690,10700,9450,8770,8790,8920,9000,9010,8930,8900,8800,8990,9270,12190,15440,15260,13860,21180,21080,20930,20880,20670,722590
OKI2201,CTCT,GG,CTCT,kWh,I,F,06/06/1999,20730,20810,21050,20920,20860,20680,20500,20530,21020,20950,20700,20590,20440,20480,21050,21070,20930,20580,20410,20420,20850,20730,20470,20300,20270,20670,21240,20850,20370,20230,20220,20650,20910,20660,20570,20280,20480,20740,20920,20860,20650,20770,20690,20950,21110,21050,20800,20680,993690
OKI2201,CTCT,GG,CTCT,kWh,I,F,07/06/1999,20700,20910,21000,20930,20820,20700,20630,21070,21090,20940,20920,20900,20860,21230,21190,21160,20990,20860,18880,16500,21060,21190,20790,21230,20650,20980,20940,20760,20510,20340,20550,20760,20830,20550,20490,20210,20560,20900,20680,20630,20470,20510,20880,21010,20800,20700,21060,20760,993080
OKI2201,CTCT,GG,CTCT,kWh,I,F,08/06/1999,21050,21090,20950,20590,20600,20720,21050,21120,20810,20620,20480,20760,21050,20930,20700,20570,20660,20830,21090,20800,20520,20280,20490,20620,20720,20430,20130,20170,20180,20360,20500,20250,20350,20210,20500,20470,20690,20680,20630,20530,20370,20400,20710,20870,20730,20550,20420,20460,989690
OKI2201,CTCT,GG,CTCT,kWh,I,F,09/06/1999,20850,20840,20670,20550,20410,20470,20790,20660,20460,20270,20530,21330,20850,20620,20350,20180,20490,20860,20680,20540,20250,20170,20400,20680,20610,20260,20230,20210,20520,20550,20390,20180,19970,20010,20280,20290,20240,20070,20300,20140,20640,20710,20710,20380,20350,20330,20760,20860,982890